Regional Weather Roundup
Issued by NWS Pendleton, OR

Current Version | Previous Version | Text Only | Print | Product List | Glossary On
Versions: 1 2 3 4 5 6 7 8 9 10 11 12 13 14 15 16 17 18 19 20 21 22 23 24 25 26 27 28 29 30 31 32 33 34 35 36 37 38 39 40 41 42 43 44 45 46 47 48 49 50
129
ASUS46 KPDT 300910
RWRPDT
PENDLETON REGIONAL WEATHER ROUNDUP
NATIONAL WEATHER SERVICE PENDLETON OREGON
200 AM PDT SAT APR 30 2016

NOTE: FAIR INDICATES FEW OR NO CLOUDS BELOW 12,000 FEET WITH NO
SIGNIFICANT WEATHER AND/OR OBSTRUCTIONS TO VISIBILITY.

# INDICATES UNOFFICIAL STATION AND DATA

WAZ520-301010-
EAST SLOPES OF WASHINGTON CASCADES

CITY            SKY/WX      TMP DP  RH  WIND    PRES   REMARKS
#CLE ELUM HS    N/A         45  36  70  NW6     30.11S
#CLE ELUM 2NW   N/A         44  35  70  SW3     N/A
#CLE ELUM LAKE  N/A         41  34  76  CALM    30.16R
#GLENWOOD       N/A         32  30  92  CALM    30.17R
#MANASTASH CYN  N/A         44  29  55  CALM    30.10R
#NELSON 3SW     N/A         41  34  76  CALM    30.37R
#NILE           N/A         45  34  65  W2      29.44R
#TEANAWAY 4NE   N/A         42  37  82  CALM    N/A
#TROUT LAKE 1NE N/A         47  36  65  W5      30.15R
#TROUT LAKE 1E  N/A         44  36  73  CALM    30.11R
$$

WAZ521-301010-
SIMCOE HIGHLANDS

CITY            SKY/WX      TMP DP  RH  WIND    PRES   REMARKS
#BICKLETON HS   N/A         46  24  42  VRB10   N/A
#CENTERVILLE 1SWN/A         42  38  86  W6      30.12R
#GOLDENDALE 1NE N/A         41  31  67  CALM    N/A
#GOODNOE HILLS  N/A         47  38  71  W12     30.04R WCI 42
#LYLE 6NE       N/A         45  40  82  W3      30.14R
$$

WAZ026-301010-
KITTITAS VALLEY

CITY            SKY/WX      TMP DP  RH  WIND    PRES   REMARKS
ELLENSBURG AP   CLOUDY      50  35  56  NW23G29 30.13R
YTC-OPS AREA    MOCLDY      43  32  65  W24G32  30.11S WCI 34
#ELLENSBURG CWU N/A         49  36  61  N9      30.07R
#ELLENSBURG 3NE N/A         48  38  68  N9      30.12R
#ELLENSBURG     N/A         51  38  61  W3      N/A
#ELLENSBURG 1E  N/A         49  N/A N/A CALM    N/A
#KITTITAS 3S    N/A         49  37  63  N7      30.10S
#THORP 6N       N/A         45  36  70  W20G28  30.17R WCI 37
$$

WAZ027-301010-
YAKIMA VALLEY

CITY            SKY/WX      TMP DP  RH  WIND    PRES   REMARKS
YAKIMA AIRPORT  PTCLDY      54  32  43  NW9     30.13S
YAKIMA-VAGABOND MOCLDY      52  33  48  N13     30.11S
#GRANDVIEW      N/A         52  33  48  SW1     30.12S
#MABTON         N/A         53  37  54  SW5     30.12S
#NACHES 2SW     N/A         50  35  56  W12G26  30.10R
#TERRACE HTS    N/A         52  35  52  NW5     30.07R
#TOPPENISH      N/A         53  35  50  CALM    30.03S
#WEST VALLEY    N/A         53  33  46  NW7     30.09S
#W YAKIMA       N/A         52  34  50  NW3     30.12S
#WHITE SWAN 5E  N/A         39  33  79  CALM    30.14R
#WILEY CITY 3W  N/A         50  28  42  CALM    30.09R
$$

WAZ028-301010-
LOWER COLUMBIA BASIN...WASHINGTON

CITY            SKY/WX      TMP DP  RH  WIND    PRES   REMARKS
PASCO           CLOUDY      54  37  52  SW7     30.11R
PROSSER AWOS    N/A         52  36  54  SW9     30.15R
RICHLAND AWOS   CLOUDY      54  39  57  SW3     30.11R
#BENTON CITY    N/A         52  36  54  W14     30.01R
#CONNELL 5N     N/A         48  44  86  W1      30.08R
#CONNELL 5NW    N/A         49  45  86  W1      30.05R
#ELTOPIA 6NW    N/A         51  41  68  CALM    29.05R
#KAHLOTUS       N/A         51  42  71  N6      30.07S
#KENNEWICK 3S   N/A         52  38  59  CALM    30.11R
#PATERSON       N/A         49  41  74  NW2     30.11R
#SAGEMOOR 2W    N/A         53  40  61  W6      29.94R
#TOUCHET 2S     N/A         53  40  61  SW8     30.09R
#WEST PASCO     N/A         54  39  57  NW1     30.18R
$$

WAZ029-301010-
FOOTHILLS OF THE BLUES...WASHINGTON

CITY            SKY/WX      TMP DP  RH  WIND    PRES   REMARKS
WALLA WALLA AP  CLOUDY      50  42  74  S10     30.11R
#CLYDE 6NW      N/A         50  46  86  CALM    30.09R
#DAYTON SCHOOL  N/A         51  38  61  SW5     30.10R
#LOWDEN 2SE     N/A         53  42  66  W5      30.08R
#PLEASANT VIEW 1N/A         48  45  89  SW5     30.12R
#PRESCOTT       N/A         50  46  86  CALM    30.09R
#SUDBURY        N/A         57  N/A N/A CALM    N/A
#WHITMAN COLLEGEN/A         52  44  74  S3      30.16R
#WAITSBURG 5S   N/A         48  41  77  S7      30.20R
#WAITSBURG 8N   N/A         48  28  46  S6      29.97R
#WALLA WALLA U  N/A         54  44  69  S2      30.11
#WHITMAN MISSIONN/A         53  44  71  CALM    30.12R
$$

WAZ030-301010-
BLUE MOUNTAINS...WASHINGTON

CITY            SKY/WX      TMP DP  RH  WIND    PRES   REMARKS
#DIXIE 5SE      N/A         43  40  89  S10     30.03R
$$

ORZ009-041-WAZ024-301010-
COLUMBIA RIVER GORGE

CITY            SKY/WX      TMP DP  RH  WIND    PRES   REMARKS
HOOD RIVER AP   PTCLDY      52  43  71  W3      30.20R
THE DALLES AP   CLEAR       54  42  64  NW8     30.17R
#ARLINGTON AIRPON/A         50  39  66  W3      30.15R
#CELILO DOT     N/A         55  40  57  SW7     N/A
#MARYHILL 2W    N/A         54  39  57  NW9     N/A
#MOSIER 1S      N/A         51  32  48  W8      30.18R
#MURDOCK        N/A         55  44  66  NW20G29 30.13R
#RUFUS DOT      N/A         55  41  59  W15     N/A

$$

ORZ510-301010-
NORTH CENTRAL OREGON

CITY            SKY/WX      TMP DP  RH  WIND    PRES   REMARKS
#ANTELOPE       N/A         31  28  88  N1      30.08S
#COW CYN RST AREN/A         40  35  82  S3      N/A
#DUFUR 9E       N/A         45  37  73  W8      30.21R
#GRASS VALLEY   N/A         44  37  76  CALM    N/A
#GRASS VALLEY 1SN/A         43  36  76  NW7     30.09R
#KENT DOT       N/A         38  29  70  N8      N/A
#MAUPIN SCHOOL  N/A         46  37  71  CALM    30.21R
#MORO SCHOOL    N/A         47  41  79  W12     30.15R WCI 42
#SHANIKO 5WSW   N/A         37  31  79  S6      N/A
#TYGH VALLEY 2NEN/A         41  36  82  CALM    30.17R
#WAPANITIA AIRPON/A         43  37  79  CALM    30.18R
#WASCO DOT      N/A         46  40  79  W7      N/A
#WASCO 5NE      N/A         45  39  79  SW5     30.13S
$$

ORZ511-301010-
CENTRAL OREGON

CITY            SKY/WX      TMP DP  RH  WIND    PRES   REMARKS
BEND AIRPORT    CLEAR       32  30  92  CALM    30.18S
MADRAS AIRPORT  CLEAR       34  30  85  S6      30.21R
PRINEVILLE AP   CLEAR       36  32  85  NW8     30.18R
REDMOND AIRPORT CLEAR       31  28  88  S6      30.18S
#ASHWOOD SCHOOL N/A         37  34  89  CALM    30.14R
#BEND 1SW       N/A         30  27  88  SE1     N/A
#BEND-AWBREY    N/A         37  32  82  CALM    30.19R
#BEND-KIM LN    N/A         34  31  89  CALM    30.15R
#CULVER         N/A         37  32  82  CALM    30.16R
#LAKE BILLY CHINN/A         39  N/A N/A CALM    30.25R
#POWELL BUTTE   N/A         36  31  82  SE3     30.03S
#PRINEVILLE 3N  N/A         42  36  79  W1      30.20R
#WARM SPRINGS   N/A         39  34  82  CALM    30.15S

$$


ORZ509-301010-
EAST SLOPES OF OREGON CASCADES

CITY            SKY/WX      TMP DP  RH  WIND    PRES   REMARKS
SISTERS AWOS    N/A         39  34  82  CALM    30.14R
#BLUE BOX PASS  N/A         37  N/A N/A S2      N/A
#BLACK BUTTE RNCN/A         39  35  85  CALM    30.19R
#CAMP SHERMAN   N/A         31  27  85  CALM    30.28R
#LA PINE 4NW    N/A         27  23  85  CALM    30.23S
#LAVA BUTTE DOT N/A         28  26  92  CALM    N/A
#SISTERS AIRPOR N/A         40  38  92  N2      30.17S
#SISTERS ODOT   N/A         42  N/A N/A CALM    N/A
#SISTERS 3N     N/A         34  27  75  CALM    30.17R
#SUNRIVER       N/A         28  26  92  CALM    30.24R
#SUTTLE LK DOT  N/A         35  34  96  N21G36  N/A    WCI 24
#TUMALO 3W      N/A         38  33  82  NW3     30.07S
#WANOGA BUTTE D N/A         30  24  78  NW2     N/A

$$

ORZ044-301010-
LOWER COLUMBIA BASIN...OREGON

CITY            SKY/WX      TMP DP  RH  WIND    PRES   REMARKS
HERMISTON       CLOUDY      52  40  63  SW10    30.12R
#BOARDMAN SCHOOLN/A         51  42  71  SW6     30.13R
#BOARDMAN 8SW   N/A         50  42  74  SW3     30.12R
#ECHO 8SW       N/A         52  40  63  W6      30.13S
#I-84 EX 198 DOTN/A         51  39  63  E10     N/A
#UMATILLA SCHOOLN/A         50  44  80  CALM    30.13R
#UMATILLA       N/A         51  38  61  CALM    30.05S
$$

ORZ507-301010-
NORTHERN FOOTHILLS OF THE BLUES

CITY            SKY/WX      TMP DP  RH  WIND    PRES   REMARKS
PENDLETON AIRPT CLOUDY      50  37  61  SW12    30.12R
#ADAMS 3WNW     N/A         47  39  74  SW3     30.13R
#ATHENA         N/A         47  39  74  CALM    30.15R
#CAYUSE         N/A         50  38  63  SW3     30.12S
#HELIX SCHOOL   N/A         47  39  74  W3      30.12R
#HELIX 3N       N/A         46  39  76  N10     30.08R
#HELIX 6SW      N/A         47  39  74  W1      30.11R
#HOLDMAN 5SE    N/A         48  40  74  W1      30.11R
#HOLDMAN 6E     N/A         47  39  74  N6      29.93R
#M-F FERNDALE   N/A         52  40  63  CALM    30.10R
#M-F GROVE ELEM N/A         52  39  61  SW6     30.09R
#M-FREEWATER 5SEN/A         51  40  66  SW3     30.11R
#PENDLETON DNTN N/A         53  33  46  SW6     30.16R
#PDT AQUATIC CTRN/A         53  34  48  SW3     30.14R
#PDT SUNRIDGE   N/A         52  38  59  SW5     30.14R
#PENDLETON 7NW  N/A         50  39  66  SW1     27.45S
#PILOT ROCK     N/A         50  35  56  S5      30.14R
#TUTUILLA       N/A         48  39  71  CALM    30.14R
#UMAPINE 2E     N/A         52  42  69  SW1     30.09R
#WESTON SCHOOL  N/A         47  36  65  W5      30.05R

$$

ORZ508-301010-
SOUTHERN FOOTHILLS OF THE BLUES

CITY            SKY/WX      TMP DP  RH  WIND    PRES   REMARKS
#AJAX           N/A         46  31  56  S6      27.89R
#CONDON SCHOOL  N/A         45  37  73  NW7     30.09S
#CONDON 5W      N/A         40  33  76  NW10    30.11R
#FOSSIL SCHOOL  N/A         46  37  71  CALM    30.10R
#HEPPNER EOC    N/A         46  38  73  CALM    30.08S
#HEPPNER 4NE    N/A         44  38  79  SW2     30.15R
#LEXINGTON 2SE  N/A         47  39  74  CALM    30.11R
#MIKKALO        N/A         48  36  63  NW5     30.24
#RUGGS 5NE      N/A         44  38  79  SW3     30.30R
#RUGGS 2SW      N/A         45  36  70  W7      30.16S

$$

ORZ502-503-301010-
BLUE MOUNTAINS

CITY            SKY/WX      TMP DP  RH  WIND    PRES   REMARKS
MEACHAM         CLOUDY      39  34  82  CALM    30.12
#BATTLE MTN DOT N/A         39  39  100 CALM    N/A
#GREENHORN 9SW  N/A         42  37  82  W3      26.30R
#HARDMAN 10S    N/A         61  34  36  N5      30.22S
#HEPPNER 15SE   N/A         38  35  89  W1      30.04S
#LADD CYN SMT   N/A         44  33  65  W13     N/A    WCI 38
#LADD CREEK ODOTN/A         46  37  71  E1      N/A
#LONG CREEK HS  N/A         42  40  93  CALM    N/A
#N POWDER DOT   N/A         46  38  73  N8      N/A
#PIKES PEAK     N/A         42  35  76  SW14    27.99S WCI 35
#TOLLGATE       N/A         34  33  96  SW3     29.94R
#TROY SCHOOL    N/A         48  45  89  CALM    29.94R
#UKIAH          N/A         43  37  79  NW2     30.06S
#WESTON 4E      N/A         41  36  82  S6      30.12R
$$

ORZ505-301010-
JOHN DAY BASIN

CITY            SKY/WX      TMP DP  RH  WIND    PRES   REMARKS
JOHN DAY        CLOUDY      44  36  73  W6      30.14R
#DAYVILLE SCHOOLN/A         48  35  60  NW2     30.10R
#MITCHELL       N/A         45  39  79  CALM    30.30R
#MITCHELL 8NW   N/A         42  34  73  SW1     30.37S
#MONUMENT HS    N/A         49  37  63  CALM    30.13R
#MT. VERNON 5SE N/A         41  35  79  CALM    30.08R
#SPRAY SCHOOL   N/A         51  N/A N/A CALM    N/A
#WINLOCK        N/A         43  35  73  E1      30.11R
$$

ORZ506-301010-
OCHOCO AND JOHN DAY HIGHLANDS

CITY            SKY/WX      TMP DP  RH  WIND    PRES   REMARKS
#HORSE RIDGE DO N/A         36  32  85  NW1     N/A
#KEYES SMT DOT  N/A         38  32  79  SW14    N/A    WCI 30
#PAULINA SCHOOL N/A         48  34  58  N3      29.35R
#PINE MTN OBS   N/A         29  28  96  N9G24   N/A
#PRAIRIE CITY   N/A         43  38  82  W1      30.09R
#SENECA         N/A         39  N/A N/A N7      N/A
#SENECA 9NW     N/A         39  34  82  CALM    30.13R
$$

ORZ049-301010-
GRANDE RONDE VALLEY

CITY            SKY/WX      TMP DP  RH  WIND    PRES   REMARKS
LA GRANDE       CLOUDY      46  30  53  NW16    30.09R WCI 39
#COVE           N/A         45  44  96  CALM    30.12R
#COVE SCHOOL    N/A         44  41  89  CALM    30.11R
#COVE 6NW       N/A         39  35  85  CALM    29.63S
#ELGIN 3N       N/A         47  36  65  CALM    30.06S
#ELGIN 1E       N/A         47  37  68  CALM    N/A
#ISLAND CITY 4N N/A         44  41  89  CALM    30.29R
#LADD CYN DOT   N/A         48  38  68  NE3     N/A
#UNION 1S       N/A         47  38  71  W7      30.01S
$$

ORZ050-301010-
WALLOWA COUNTY

CITY            SKY/WX      TMP DP  RH  WIND    PRES   REMARKS
JOSEPH AIRPORT  CLOUDY      41  41  100 N7      30.09R
#ENTERPRISE AP  N/A         49  29  46  CALM    30.01S
#ENTERPRISE HS  N/A         42  40  93  NW1     30.10R
#IMNAHA SCHOOL  N/A         48  47  96  CALM    30.08R
#IMNAHA 10S     N/A         43  42  96  CALM    30.06S
#JOSEPH 3N      N/A         41  37  86  NW6     30.09S
#JOSEPH 3W      N/A         39  38  96  CALM    29.91R
#LOSTINE        N/A         42  40  93  CALM    29.90S
#MT HOWARD 8000 N/A         28  27  96  CALM    30.03R
#PROMISE 1S     N/A         42  38  86  CALM    30.21R
#WALLOWA SCHOOL N/A         45  41  86  CALM    30.06R



$$



USA.gov is the U.S. government's official web portal to all federal, state and local government web resources and services.